Location: *
(52.2090°N, 4.1550°W)
Time: 22:04:11
(UTC+00:00)

Cosmos 2237 Rocket - Pass Details

Date: 19 July 2019
Orbit: 835 x 850 km, 71.0° (Epoch: 23 August)

Event Time Altitude Azimuth Distance (km) Brightness Sun altitude
Exits shadow 22:34:27 19° 146° (SE) 1,905 3.4 -13.3°
Maximum altitude 22:37:13 28° 104° (ESE) 1,533 3.2 -13.5°
Drops below altitude 10° 22:41:54 10° 48° (NE) 2,458 4.8 -13.8°
Sets 22:44:39 0° 37° (NE) 3,398 5.8 -13.9°
